Flag for Germany Weather past 2 weeks in Burgdorf, Lower Saxony, Germany

Now
64 °F

Light rain. Partly sunny.


Feels Like: 64 °F
Forecast: 61 / 79 °F
Wind: 6 mph from East

Location: Celle Airport

Current Time: Jul 25, 2014 at 8:36:32 PM

Latest Report: Jul 25, 2014 at 7:20 PM


Visibility: 4 mi

Pressure: 29.92 "Hg

Humidity: 94%

Dew point: 63 °F

Location of BurgdorfLocation

Historic Weather in Burgdorf — Graph

°F

Burgdorf temperature yesterday

Maximum temperature yesterday: 77 °F (at 4:20 PM)
Minimum temperature yesterday: 61 °F (at 5:20 AM)
Average temperature yesterday: 67 °F

Past Weeks' High & Low Weather Summary

 TemperatureHumidityPressure
High91 °F (Jul 19, 4:20 PM)100% (Jul 11, 4:20 AM)30.18 "Hg (Jul 11, 4:20 AM)
Low52 °F (Jul 12, 4:20 AM)26% (Jul 19, 4:20 PM)29.71 "Hg (Jul 13, 2:48 PM)
Average70 °F68%29.98 "Hg
* Reported Jul 10 7:20 PM — Jul 25 7:20 PM, Burgdorf, Weather by CustomWeather, © 2014

Note: Actual official high and low records may vary slightly from our data, if they occured in-between our weather recording intervals... More about our weather records

Advertising

Burgdorf weather history for previous 24 hours

 ConditionsComfort  
Time TempWeatherWind HumidityBarometerVisibility
7:20 PM
Jul 25
64 °FLight rain. Partly sunny.6 mph94%29.92 "Hg4 mi
6:20 PM68 °FRain. Overcast.3 mph94%29.95 "Hg4 mi
6:04 PM68 °FRain. Fog.3 mph94%29.95 "Hg3 mi
5:20 PM70 °FLight rain. Overcast.2 mph88%29.95 "Hg5 mi
4:20 PM70 °FLight rain. Partly sunny.7 mph83%29.95 "Hg5 mi
3:48 PM70 °FLight rain. Mostly cloudy.5 mph83%29.95 "Hg4 mi
3:20 PM68 °FBroken clouds.3 mph88%29.95 "Hg4 mi
2:20 PM66 °FBroken clouds.3 mph94%29.98 "Hg4 mi
1:52 PM66 °FPartly sunny.6 mph94%29.98 "Hg4 mi
1:20 PM66 °FFog.5 mph94%29.98 "Hg3 mi
1:00 PM66 °FRain. Fog.3 mph94%29.98 "Hg2 mi
12:47 PM66 °FDrizzle. Fog.6 mph94%29.98 "Hg3 mi
12:20 PM64 °FDrizzle. Fog.6 mph94%29.98 "Hg3 mi
11:45 AM66 °FLight rain. Fog.7 mph88%29.98 "Hg3 mi
11:20 AM66 °FBroken clouds.5 mph88%29.98 "Hg5 mi
10:20 AM64 °FLight rain. Fog.5 mph94%29.98 "Hg3 mi
9:20 AM63 °FLight rain. Fog.6 mph94%29.98 "Hg3 mi
8:20 AM63 °FLight rain. Fog.6 mph94%29.98 "Hg3 mi
7:20 AM61 °FLight rain. Fog.5 mph94%29.98 "Hg3 mi
6:51 AM61 °FRain. Fog.5 mph94%29.98 "Hg3 mi
6:20 AM61 °FLight rain. Fog.6 mph94%29.98 "Hg3 mi
5:20 AM61 °FRain. Mostly cloudy.5 mph94%30.01 "Hg4 mi
4:20 AM61 °FRain. Mostly cloudy.5 mph94%30.01 "Hg4 mi
3:20 AM61 °FRain. Partly cloudy.3 mph94%30.01 "Hg6 mi
2:20 AM61 °FLight rain. Partly cloudy.3 mph94%30.04 "HgN/A
1:20 AM61 °FLight rain. Passing clouds.5 mph94%30.04 "HgN/A
12:20 AM61 °FLight rain. Mostly cloudy.5 mph94%30.04 "HgN/A
11:20 PM
Jul 24
61 °FLight rain. Passing clouds.2 mph94%30.04 "HgN/A
10:20 PM61 °FPartly sunny.3 mph94%30.04 "HgN/A
9:20 PM61 °FBroken clouds.5 mph94%30.04 "HgN/A
8:20 PM63 °FLight rain. Partly sunny.7 mph88%30.07 "HgN/A
Weather by CustomWeather, © 2014

See weather overviewHow to use our weather pages